Location: Chojnice
(53.6994°N, 17.5675°E)
Time: 22:19:04
(UTC+01:00)

ISS - Visible Passes

Search period start: 19 January 2018 00:00
Search period end: 29 January 2018 00:00
Orbit: 402 x 407 km, 51.6° (Epoch: 20 January)

Date Brightness Start Highest point End Pass type
(mag) Time Alt. Az. Time Alt. Az. Time Alt. Az.
26 Jan -1.0 18:56:01 10° SSW 18:56:11 11° SSW 18:56:11 11° SSW visible
27 Jan -1.5 18:04:43 10° S 18:06:11 13° SE 18:06:11 13° SE visible
28 Jan -2.0 18:46:55 10° SW 18:48:46 24° S 18:48:46 24° S visible
